Regional Weather Roundup
Issued by NWS

Home | Current Version | Previous Version | Text Only | Print | Product List | Glossary Off
Versions: 1 2 3 4 5 6 7 8 9 10 11 12 13 14 15 16 17 18 19 20 21 22 23 24 25 26 27 28 29 30 31 32 33 34 35 36 37 38 39 40 41 42 43 44 45 46 47 48 49 50

000
ASUS43 KTOP 220408
RWRKS

WEATHER ROUNDUP FOR KANSAS
NATIONAL WEATHER SERVICE GOODLAND KS
1100 PM CDT MON JUL 21 2014

NOTE:  "FAIR" INDICATES FEW OR NO CLOUDS BELOW 12,000 FEET WITH NO
SIGNIFICANT WEATHER AND/OR OBSTRUCTIONS TO VISIBILITY.

KSZ001>006-013>018-027>032-041>047-220500-
NORTHWEST KANSAS

CITY           SKY/WX    TMP DP  RH WIND       PRES   REMARKS
GOODLAND       CLEAR     74  62  66 S16       30.09R
HAYS           CLOUDY    84  63  48 S18       29.95F
HILL CITY      CLOUDY    85  66  53 W9        29.97R
RUSSELL        CLOUDY    84  71  65 S16       29.94F
$$

KSZ061>065-074>080-084>089-220500-
SOUTHWEST KANSAS

CITY           SKY/WX    TMP DP  RH WIND       PRES   REMARKS
DODGE CITY     CLOUDY    80  63  55 W12       30.11R
ELKHART          N/A     71  61  71 SE17        N/A
GARDEN CITY    LGT RAIN  72  68  87 S13       30.14R
GREAT BEND     CLOUDY    82  70  65 S16       29.97F
LIBERAL        CLOUDY    72  63  73 SW12      30.17R THUNDER
PRATT          CLOUDY    81  66  61 S13       30.04F
$$

KSZ066>073-081>083-090>101-220500-
SOUTHEAST KANSAS

CITY           SKY/WX    TMP DP  RH WIND       PRES   REMARKS
CHANUTE        CLEAR     76  73  91 S7        30.02R
COFFEYVILLE    CLEAR     79  74  84 S7        30.01S HAZE
HUTCHINSON     CLOUDY    84  72  67 S12       30.01R
MEDICINE LODGE   N/A     84  70  62 S6        30.01S
NEWTON         CLOUDY    81  70  69 S10       30.05R
PARSONS        CLEAR     79  73  82 S5        30.03R
WICHITA INTL   CLOUDY    82  75  79 S12       30.02R
WICHITA JABRA  CLOUDY    82  75  79 S10       30.02R
WICHITA MCCONL CLOUDY    82  79  91 SE9       30.03R
WINFIELD       CLOUDY    80  76  87 SE6       30.04R
$$

KSZ007>012-019>026-033>040-048>060-102>105-220500-
NORTHEAST KANSAS

CITY           SKY/WX    TMP DP  RH WIND       PRES   REMARKS
CONCORDIA      CLOUDY    88  69  53 S17       29.94R
EMPORIA        MOCLDY    78  73  84 S9        30.01R
LAWRENCE       CLEAR     84  73  69 S9        29.97S
MANHATTAN      MOCLDY    85  73  67 SW12      29.96R
MARYSVILLE     MOCLDY    82  73  74 S8        29.94R
OLATHE IND     CLEAR     80  74  81 S10       30.00R
OLATHE EXE     CLEAR     80  73  79 S8        30.00R
SALINA         CLOUDY    87  70  56 S10       29.97R
TOPEKA BILLARD CLEAR     86  75  69 S12       29.97S HX  95
TOPEKA FORBES  CLEAR     83  74  74 S10       29.98S
$$



USA.gov is the U.S. government's official web portal to all federal, state and local government web resources and services.